Dewpoint
53 53 53 53 54 54 54 54 55 55 55 55 56 56 56 58 57 50 45 37 44 59 68 52 44 45 60 63 63 61 59 56 55 48 49 55 54 57 58 59 60 60 62 63 59
53 53 53 53 53 54 54 54 54 54 55 55 55 55 56 57 52 46 50 59 60 62 43 31 42 39 50 59 60 55 57 55 54 54 51 50 52 57 58 60 61 62 63 62 62
53 53 53 53 53 53 54 54 54 54 54 55 55 55 55 55 48 37 61 61 61 66 39 28 36 39 49 55 55 53 55 55 55 55 53 51 51 51 58 60 61 62 62 62 64
53 53 54 53 53 53 54 54 54 54 54 54 55 55 55 51 29 33 68 66 62 52 33 27 30 37 46 52 53 51 53 52 51 52 54 51 54 51 58 60 63 63 63 61 62
54 55 55 55 54 55 55 55 55 54 54 55 56 54 53 44 38 37 67 70 54 43 30 25 29 37 40 49 50 47 50 51 50 52 56 52 49 53 57 62 63 62 62 62 62
55 55 55 55 55 55 55 55 55 54 54 56 57 55 49 38 39 37 48 54 47 35 28 26 32 37 39 42 47 47 48 50 51 52 52 47 49 49 58 60 62 62 61 62 62
55 55 54 54 54 54 54 54 53 53 54 57 58 53 45 34 36 36 43 44 36 31 24 26 31 32 39 41 46 46 44 50 52 52 52 52 48 47 58 59 60 61 61 61 61
54 54 54 54 54 54 53 53 53 53 54 58 57 54 45 40 40 37 37 42 34 30 26 27 32 27 28 40 41 42 42 39 45 47 50 51 47 51 54 58 59 59 61 61 61
54 54 53 53 53 53 52 52 54 53 56 56 55 51 42 47 40 40 38 35 35 32 30 26 26 26 24 32 36 38 38 38 41 43 45 47 45 52 52 55 57 58 59 59 60
54 53 53 53 52 51 51 52 53 54 56 53 50 47 43 35 37 38 36 28 25 32 28 27 28 26 22 28 30 36 37 37 39 42 42 38 37 51 52 52 55 56 57 56 60
53 53 52 52 51 51 48 40 20 33 32 17 20 33 23 37 33 36 34 33 20 32 29 32 30 27 22 27 30 38 38 36 36 40 39 38 35 50 50 54 59 61 55 56 56
53 52 51 51 51 49 46 21 17 17 14 16 17 19 21 23 26 30 35 30 23 26 30 33 30 29 28 28 28 35 37 36 35 35 36 34 34 37 49 56 58 59 60 56 56
52 52 51 50 49 43 33 18 17 16 15 16 15 16 18 18 20 25 30 29 22 24 28 31 33 33 30 27 27 31 34 36 34 30 29 34 34 34 47 54 55 60 62 55 56
52 51 50 50 40 35 30 26 17 17 18 17 14 17 18 17 14 23 28 25 25 22 27 30 34 33 33 29 29 30 34 35 35 31 33 36 32 35 37 49 55 59 60 55 55
51 51 50 49 41 36 32 23 17 19 14 19 16 20 15 13 10 17 25 27 22 21 28 28 33 33 31 30 30 31 32 33 34 33 31 34 32 33 34 36 51 57 58 56 55
50 50 50 43 40 37 29 19 19 18 13 7 11 11 10 12 19 23 16 26 21 20 29 28 35 33 32 30 30 32 29 27 32 32 28 28 32 32 33 35 51 54 55 56 56
49 48 48 43 36 31 30 20 18 11 9 8 7 7 5 9 15 20 24 23 24 19 27 27 28 34 32 30 30 29 26 22 20 23 25 26 26 27 31 34 38 47 53 54 56
48 48 47 41 39 35 22 20 18 11 6 9 9 6 4 10 13 17 21 27 25 23 26 26 25 30 32 28 26 28 25 18 19 21 22 22 20 24 27 31 33 44 50 54 56
48 42 39 37 39 29 25 19 16 12 11 9 7 3 4 10 14 19 23 27 31 29 22 20 22 33 33 25 21 21 19 16 13 20 16 19 19 22 23 26 27 32 47 51 54
43 40 39 33 29 28 25 24 18 13 11 9 6 9 9 13 21 22 24 28 31 39 36 21 16 28 30 32 22 16 17 13 12 12 13 15 17 19 19 20 26 28 38 45 50
39 37 32 30 28 27 20 20 20 16 15 14 11 9 9 13 21 23 25 29 36 37 36 33 22 16 23 27 26 14 16 14 14 15 16 19 18 20 22 24 23 30 33 39 48
38 32 36 34 28 26 24 23 25 15 16 20 22 18 17 17 15 19 23 27 35 37 32 33 31 18 17 23 25 22 16 16 13 15 15 16 14 28 28 25 25 27 30 39 46
37 36 36 34 27 28 30 28 21 16 17 24 23 24 22 22 26 33 33 34 36 37 31 35 31 26 19 20 21 21 16 15 18 22 19 13 14 25 30 27 26 33 30 39 45
39 31 33 34 31 28 28 28 26 29 28 25 23 22 23 23 30 33 29 35 35 34 42 42 32 28 25 21 24 23 19 15 15 16 17 19 19 26 30 31 35 36 40 39 48
37 33 36 30 32 32 30 28 31 30 28 23 27 23 27 23 25 28 29 29 29 37 37 34 27 30 32 30 29 26 19 18 16 16 21 19 25 27 34 37 39 40 41 44 45
37 40 39 37 34 31 30 29 28 27 30 28 23 23 26 28 27 26 23 26 29 34 34 32 28 32 34 32 30 28 25 19 18 17 18 23 19 33 35 41 40 41 41 44 47
46 43 41 38 34 32 31 33 34 33 32 32 30 23 25 22 24 24 23 23 24 33 31 27 25 30 30 33 32 31 30 21 19 21 18 18 24 34 36 39 37 37 39 37 36
Lifted_Index
18 18 18 18 18 17 17 17 17 17 17 17 17 16 16 16 16 15 13 14 14 12 9 9 9 7 2 -2 -3 -2 -2 -1 -1 -1 -1 -2 -3 -3 -3 -2 -2 -2 -2 -1 -1
18 18 18 18 18 18 17 17 17 17 17 17 17 17 16 15 15 13 13 13 13 11 11 11 10 7 3 -1 -2 -2 -1 -1 -1 -1 -1 -1 -2 -2 -2 -2 -2 -2 -2 -1 -1
18 18 18 18 18 18 18 18 17 17 17 17 17 17 16 14 12 11 11 11 11 11 12 12 11 8 4 1 -1 -1 -1 -1 -1 -1 -0 -1 -1 -1 -2 -2 -2 -2 -2 -2 -2
18 18 18 18 18 18 18 18 17 17 17 17 17 17 16 13 10 10 9 9 9 11 12 13 11 8 5 2 0 -0 -1 -1 -1 -1 -0 -1 -1 -1 -2 -2 -2 -2 -2 -2 -2
18 18 18 18 18 18 17 17 17 18 17 16 16 16 14 11 9 9 9 8 9 11 12 12 10 8 5 2 1 0 -1 -1 -1 -1 -1 -1 -1 -1 -2 -2 -2 -2 -2 -3 -3
17 17 17 17 17 17 17 17 18 18 17 15 15 15 13 9 9 10 9 9 10 12 12 11 10 7 5 3 1 0 -1 -1 -1 -1 -1 -1 -1 -1 -2 -2 -2 -2 -2 -2 -2
17 17 17 17 17 17 17 17 17 17 16 15 14 13 11 9 10 10 10 10 11 12 12 11 10 7 5 4 2 1 -0 -1 -2 -2 -2 -1 -1 -1 -2 -2 -2 -2 -2 -2 -2
17 17 17 17 17 17 17 17 17 16 15 14 13 12 10 10 10 10 10 10 11 12 12 12 10 8 6 4 3 2 1 -0 -1 -2 -2 -2 -2 -2 -2 -3 -3 -3 -2 -2 -2
17 17 17 18 18 17 17 16 16 14 13 12 12 11 10 9 9 9 10 10 10 11 11 11 10 8 7 5 4 3 2 1 -1 -1 -1 -2 -2 -2 -2 -3 -3 -3 -3 -2 -2
17 18 18 18 18 18 17 16 15 14 12 12 12 11 10 9 8 9 9 10 10 10 10 10 9 8 7 6 5 4 3 2 -0 -1 -1 -2 -2 -2 -3 -3 -3 -3 -3 -3 -2
18 18 18 19 19 18 17 17 16 15 14 13 13 11 10 8 8 8 9 9 10 9 8 8 8 7 7 7 5 3 2 1 0 -1 -1 -1 -1 -2 -3 -3 -3 -3 -3 -3 -2
18 18 19 19 19 17 17 17 18 17 15 14 13 12 11 9 8 8 8 9 9 8 7 7 7 7 7 7 5 3 2 2 1 -0 -0 -0 -1 -2 -3 -3 -3 -3 -3 -3 -3
17 17 17 17 17 15 15 16 17 16 14 12 12 12 11 10 9 8 8 8 8 7 7 6 6 6 6 6 5 4 3 2 1 0 0 -0 -0 -1 -3 -3 -4 -3 -3 -3 -3
14 14 14 14 13 11 11 12 13 12 10 9 11 12 12 11 9 8 7 8 7 7 7 6 5 5 6 6 6 4 3 2 1 0 -0 -0 -0 -1 -1 -3 -3 -4 -3 -2 -2
11 11 11 11 10 9 8 9 9 7 5 6 9 11 11 11 9 8 7 7 7 7 6 6 5 5 5 6 5 5 4 2 1 0 -0 -0 -0 -0 -0 -1 -3 -3 -3 -3 -2
9 9 9 9 8 8 8 8 7 4 3 4 7 8 9 9 9 8 7 6 6 6 5 5 4 4 5 5 5 4 4 3 1 0 0 0 0 -0 -0 -1 -2 -3 -3 -3 -3
8 8 7 7 7 8 8 7 5 4 4 5 6 6 6 7 7 7 6 6 5 5 5 4 4 4 4 4 4 4 4 3 1 0 1 1 1 0 0 -0 -1 -3 -3 -3 -3
8 7 6 6 6 7 7 6 4 4 5 6 6 5 5 5 6 6 6 6 6 5 4 4 4 3 3 4 4 4 4 3 1 1 1 2 2 2 1 0 -1 -2 -3 -3 -3
8 6 5 5 6 7 6 5 3 4 5 6 6 5 5 5 5 5 5 5 5 4 4 3 3 2 3 3 4 4 4 3 2 1 1 2 2 2 2 1 -0 -1 -3 -3 -3
8 6 5 5 6 6 5 3 2 3 4 4 5 5 5 5 5 5 4 4 3 3 3 3 2 2 2 2 3 3 3 3 2 1 1 1 2 2 1 1 0 -0 -1 -3 -3
7 6 5 5 5 5 4 3 2 2 2 3 3 4 5 5 5 5 5 4 4 3 3 3 2 2 2 2 2 2 2 2 2 1 1 1 1 1 1 1 1 0 -0 -2 -3
7 6 5 5 4 4 3 2 2 2 2 2 2 3 3 4 5 6 7 6 6 5 4 3 3 2 2 2 2 2 2 2 2 2 2 1 1 1 1 1 0 0 0 -1 -2
7 6 5 5 4 3 3 2 1 1 1 1 1 1 1 2 3 5 7 8 7 6 5 4 3 2 2 2 1 1 1 2 2 2 2 1 1 1 1 0 0 0 0 -1 -1
7 6 5 5 4 4 3 2 1 0 0 0 1 0 -0 0 2 4 6 8 7 7 6 5 4 2 2 2 1 1 0 1 1 2 2 1 1 1 0 0 0 0 0 -0 -1
7 7 6 5 4 4 3 2 1 0 -0 -0 -0 -0 -0 -0 1 3 6 7 7 7 6 6 4 3 3 2 1 0 -0 0 1 2 2 2 1 1 0 0 0 1 1 -0 -1
8 7 6 5 4 4 3 2 1 0 -0 -0 -1 -0 -0 -0 0 2 5 7 7 7 6 5 3 2 2 2 1 1 0 0 1 1 2 2 1 1 0 0 0 1 1 0 -0
8 8 7 5 4 4 3 2 1 0 -0 -1 -1 -0 -0 -0 0 2 5 7 7 7 7 5 3 2 2 2 1 1 1 0 0 1 2 2 1 1 0 0 0 1 1 1 0